Regional Weather Roundup
Issued by NWS Upton, NY

Current Version | Previous Version | Graphics & Text | Print | Product List | Glossary Off
Versions: 1 2 3 4 5 6 7 8 9 10 11 12 13 14 15 16 17 18 19 20 21 22 23 24 25 26 27 28 29 30 31 32 33 34 35 36 37 38 39 40 41 42 43 44 45 46 47 48 49 50

000
ASUS41 KOKX 240205
RWROKX

REGIONAL WEATHER ROUNDUP
NATIONAL WEATHER SERVICE NEW YORK NY
1000 PM EDT WED JUL 23 2014

NOTE: "FAIR" INDICATES FEW OR NO CLOUDS BELOW 12,000 FEET WITH NO
SIGNIFICANT WEATHER AND/OR OBSTRUCTIONS TO VISIBILITY.

NYZ071-072-176-178-NJZ106-104-240300-
NEW YORK CITY METRO AREA


CITY           SKY/WX    TMP DP  RH WIND       PRES   REMARKS
CENTRAL PARK   LGT RAIN  74  71  91 W6        29.87R FOG
LAGUARDIA APRT LGT RAIN  78  69  73 W6        29.82R
KENNEDY INTL   TSTM      77  72  84 SW16      29.83R
NEWARK/LIBERTY LGT RAIN  77  73  88 W16       29.83R
BRNX BOT. GARD   N/A     77  70  78 SW5       29.83S
TETERBORO      CLOUDY    82  69  64 SW8       29.82R
$$

NYZ177-179-078>081-240300-
LONG ISLAND NEW YORK

CITY           SKY/WX    TMP DP  RH WIND       PRES   REMARKS
FARMINGDALE    CLOUDY    76  70  82 SW10      29.83R
ISLIP          MOCLDY    77  68  73 SW12      29.82R
SHIRLEY        PTCLDY    76  69  79 SW13      29.85R
WESTHAMPTON    PTCLDY    73  70  90 SW8       29.86R
MONTAUK POINT    N/A     73  70  90 S8        29.85R
$$

NYZ052-065-067-240300-
HUDSON VALLEY

CITY           SKY/WX    TMP DP  RH WIND       PRES   REMARKS
WHITE PLAINS   LGT RAIN  74  72  93 NW7       29.84R
NEWBURGH       PTCLDY    72  70  94 CALM      29.86R
MONTGOMERY     CLOUDY    72  70  93 SW5       29.85R
POUGHKEEPSIE   CLOUDY    73  70  90 NW3       29.83R
ALBANY         CLOUDY    70  67  90 NW7       29.83R
$$

NJZ001-105-106-008-010-013-015-019>022-104-240300-
NEW JERSEY

CITY           SKY/WX    TMP DP  RH WIND       PRES   REMARKS
NEWARK/LIBERTY LGT RAIN  77  73  88 W16       29.83R
TETERBORO      CLOUDY    82  69  64 SW8       29.82R
CALDWELL       CLOUDY    77  70  79 CALM      29.85R
MORRISTOWN     CLOUDY    77  72  83 SW7       29.85R
SOMERVILLE     LGT RAIN  73  71  93 CALM      29.84R
LINDEN         LGT RAIN  77  72  83 NW15G23   29.86R
SUSSEX         CLOUDY    78  67  68 VRB3      29.87R
ANDOVER          N/A     76  67  73 N3        29.88R
TRENTON        LGT RAIN  73  70  90 NW8       29.87R
MILLVILLE      CLOUDY    74  70  87 W9        29.86F
ATLANTIC CITY  CLOUDY    77  72  84 SW6       29.85S
WRIGHTSTOWN    LGT RAIN  75  70  84 W12       29.83F
TOMS RIVER     CLOUDY    77  70  78 SW3       29.84F
BELMAR         CLOUDY    79  66  65 W9        29.84S
$$

PAZ047>061-062-071-240300-
EASTERN PENNSYLVANIA

CITY           SKY/WX    TMP DP  RH WIND       PRES   REMARKS
PHILADELPHIA   LGT RAIN  74  69  85 SE3       29.85F
ALLENTOWN      TSTM      73  70  90 CALM      29.87S
SCRANTON       CLOUDY    72  62  71 N8        29.92R
$$

CTZ002-004>006-009-010-012-RIZ004-006-007-MAZ004-011-015-240300-
SOUTHERN NEW ENGLAND
 IN CT

CITY           SKY/WX    TMP DP  RH WIND       PRES   REMARKS
BRADLEY INTL   TSTM      73  68  84 W10       29.85R
HARTFORD       TSTM      75  68  78 W10       29.85R
DANBURY        TSTM      70  67  90 CALM      29.87R FOG
WTRBRY/OXFORD  CLOUDY    72  64  78 W12G23    29.91R THUNDER
BRIDGEPORT     MOCLDY    78  70  76 SW6       29.82R
MERIDEN        LGT RAIN  77  69  76 NW6       29.85R
NEW HAVEN      MOCLDY    79  68  69 CALM      29.83R
CHESTER        FAIR      73  66  78 S5        29.85R
GROTON         MOCLDY    71  67  87 S6        29.83S
WILLIMANTIC    CLOUDY    76  68  76 VRB6      29.85R

 IN RI

CITY           SKY/WX    TMP DP  RH WIND       PRES   REMARKS
PROVIDENCE     MOCLDY    75  64  68 S9        29.83S
BLOCK ISLAND   PTCLDY    72  68  88 SW12      29.85F
WESTERLY       MOCLDY    73  67  81 S7        29.85S

 IN MA

CITY           SKY/WX    TMP DP  RH WIND       PRES   REMARKS
BOSTON         CLOUDY    78  69  73 SW13      29.79R
WORCESTER      CLOUDY    70  66  87 W9        29.86R
WESTFIELD      RAIN      72  70  93 CALM      29.83F FOG
PROVINCETOWN   MOCLDY    70  68  94 SW13      29.83S
NANTUCKET      PTCLDY    69  68  96 SW10      29.87R
$$

ANZ330-335-338-340-345-350-353-355-240300-
COASTAL MARINE OBSERVATIONS


STATION/POSITION TIME  SKY/WX   TEMP    WIND        PRES    VSBY  WAVE
                                AIR SEA DIR/SP/G                  HT/PER
                 (UTC)          (F)     (DEG/KT/KT) (MB)    (MI)  (FT/S)
NY HARB ENTRANCE NOT AVBL
4S FIRE IS       NOT AVBL
23SW MTP         0200            72 71              1010.2          4/ 5
HUDSON CANYON    0200            75 74  210/ 14/ 16 1011.0          3/ 9
EXECUTION ROCKS  0200            75 71  280/  8/ 12   N/A
WESTERN LI SOUND 0200            79     220/ 12/ 17   N/A           1
CENTRAL LI SOUND 0100            75 73  210/ 16/ 17   N/A           2/ 4
EASTERN LI SOUND 0100            71 67  230/  2/  6   N/A
ROBBINS REEF     0200            78     250/  8/  9   N/A
$$


>>>>>>>>>>>>>>>>>>>>>>>>>>>> KEY <<<<<<<<<<<<<<<<<<<<<<<<<<<
>                                                          <
>     SKY/WX - SKY CONDITION/PRESENT WEATHER               <
>     TMP    - TEMPERATURE IN FAHRENHEIT                   <
>     DP     - DEWPOINT IN FAHRENHEIT                      <
>     RH     - RELATIVE HUMIDITY IN PERCENT                <
>     WIND   - DIRECTION AND SPEED IN MPH                  <
>     PRES   - MEAN SEA LEVEL PRESSURE IN INCHES OF HG     <
>     WCI    - WIND CHILL INDEX                            <
>     VSB    - VISIBILITY IN MILES                         <
>     HX     - HEAT INDEX                                  <
>     TC     - TEMPERATURE IN CELSIUS                      <
>     VRB    - VARIABLE WIND DIRECTION                     <
>                                                          <
>>>>>>>>>>>>>>>>>>>>>>>>>>>> KEY <<<<<<<<<<<<<<<<<<<<<<<<<<<




USA.gov is the U.S. government's official web portal to all federal, state and local government web resources and services.